• In Russia
  • List of Countries
  • For 7 days
  • Water Temperature
  • Weather Map
  • Weather Widgets
  • user-avatar
    Login

    Hourly Weather Tuzla

    Today, 8 December, Sunday

    Time Temperature Precipitation Wind Pressure Humidity
    00:00 +6°C° 0 mm 0 mps 724 mmHg 92%
    01:00 +6°C° 0 mm 0 mps 724 mmHg 92%
    02:00 +6°C° 0 mm 0 mps 724 mmHg 92%
    03:00 +5°C° 0 mm 0 mps 724 mmHg 92%
    04:00 +6°C° 0 mm 1 mps 724 mmHg 92%
    05:00 +6°C° 0 mm 1 mps 724 mmHg 92%
    06:00 +6°C° 0 mm 1 mps 724 mmHg 92%
    07:00 +5°C° 0 mm 1 mps 724 mmHg 92%
    08:00 +7°C° 0 mm 1 mps 724 mmHg 88%
    09:00 +8°C° 0 mm 1 mps 724 mmHg 85%
    10:00 +9°C° 0 mm 1 mps 724 mmHg 81%
    11:00 +10°C° 0 mm 1 mps 724 mmHg 79%
    12:00 +11°C° 0 mm 1 mps 723 mmHg 76%
    13:00 +12°C° 0 mm 1 mps 723 mmHg 73%
    14:00 +11°C° 0 mm 1 mps 722 mmHg 78%
    15:00 +10°C° 0 mm 1 mps 722 mmHg 82%
    16:00 +9°C° 0 mm 1 mps 722 mmHg 86%
    17:00 +8°C° 0 mm 1 mps 722 mmHg 87%
    18:00 +7°C° 0 mm 1 mps 722 mmHg 88%
    19:00 +7°C° 0 mm 1 mps 722 mmHg 90%
    20:00 +6°C° 0 mm 2 mps 721 mmHg 90%
    21:00 +5°C° 0 mm 2 mps 721 mmHg 90%
    22:00 +5°C° 0 mm 2 mps 721 mmHg 90%
    23:00 +5°C° 0 mm 2 mps 721 mmHg 91%

    Tomorrow, 9 December, Monday

    Time Temperature Precipitation Wind Pressure Humidity
    00:00 +5°C° 0 mm 2 mps 720 mmHg 91%
    01:00 +4°C° 0 mm 2 mps 720 mmHg 91%
    02:00 +4°C° 0 mm 2 mps 720 mmHg 91%
    03:00 +4°C° 0 mm 2 mps 719 mmHg 91%
    04:00 +4°C° 0 mm 2 mps 719 mmHg 91%
    05:00 +4°C° 0 mm 2 mps 719 mmHg 91%
    06:00 +4°C° 0 mm 2 mps 718 mmHg 90%
    07:00 +4°C° 0 mm 2 mps 718 mmHg 90%
    08:00 +5°C° 0 mm 2 mps 718 mmHg 87%
    09:00 +7°C° 0 mm 2 mps 718 mmHg 83%
    10:00 +8°C° 0 mm 2 mps 718 mmHg 80%
    11:00 +9°C° 0 mm 2 mps 718 mmHg 77%
    12:00 +10°C° 0 mm 2 mps 717 mmHg 74%
    13:00 +12°C° 0 mm 2 mps 717 mmHg 70%
    14:00 +10°C° 0 mm 2 mps 716 mmHg 76%
    15:00 +9°C° 0 mm 2 mps 716 mmHg 81%
    16:00 +8°C° 0 mm 2 mps 716 mmHg 86%
    17:00 +8°C° 0 mm 1 mps 716 mmHg 87%
    18:00 +8°C° 0 mm 1 mps 716 mmHg 88%
    19:00 +7°C° 0 mm 1 mps 716 mmHg 90%
    20:00 +7°C° 0 mm 1 mps 716 mmHg 90%
    21:00 +7°C° 0 mm 1 mps 716 mmHg 90%
    22:00 +7°C° 0 mm 1 mps 715 mmHg 90%
    23:00 +7°C° 0 mm 1 mps 716 mmHg 91%

    Day after tomorrow, 10 December, Tuesday

    Time Temperature Precipitation Wind Pressure Humidity
    00:00 +6°C° 0 mm 1 mps 716 mmHg 91%
    01:00 +6°C° 0 mm 1 mps 716 mmHg 92%
    02:00 +6°C° 0.2 mm 1 mps 716 mmHg 93%
    03:00 +5°C° 0.2 mm 2 mps 717 mmHg 94%
    04:00 +5°C° 0.2 mm 2 mps 717 mmHg 95%
    05:00 +3°C° 1.9 mm 3 mps 717 mmHg 96%
    06:00 +3°C° 1.9 mm 3 mps 718 mmHg 96%
    07:00 +1°C° 1.9 mm 4 mps 719 mmHg 97%
    08:00 +1°C° 1.5 mm 4 mps 720 mmHg 97%
    09:00 +1°C° 1.5 mm 4 mps 720 mmHg 96%
    10:00 +1°C° 1.5 mm 4 mps 721 mmHg 96%
    11:00 +1°C° 1 mm 4 mps 722 mmHg 95%
    12:00 +1°C° 1 mm 4 mps 722 mmHg 93%
    13:00 0°C° 1 mm 4 mps 722 mmHg 91%
    14:00 +1°C° 0.4 mm 3 mps 722 mmHg 89%
    15:00 +1°C° 0.4 mm 3 mps 723 mmHg 87%
    16:00 +2°C° 0.4 mm 2 mps 723 mmHg 86%
    17:00 +1°C° 0.2 mm 2 mps 724 mmHg 86%
    18:00 +1°C° 0.2 mm 2 mps 724 mmHg 87%
    19:00 +1°C° 0.2 mm 2 mps 725 mmHg 87%
    20:00 +1°C° 0.1 mm 2 mps 725 mmHg 88%
    21:00 +2°C° 0.1 mm 1 mps 725 mmHg 88%
    22:00 +2°C° 0.1 mm 1 mps 725 mmHg 88%
    23:00 +2°C° 0.1 mm 1 mps 725 mmHg 89%

    11 December, Wednesday

    Time Temperature Precipitation Wind Pressure Humidity
    00:00 +2°C° 0.1 mm 1 mps 724 mmHg 90%
    01:00 +2°C° 0.1 mm 1 mps 724 mmHg 90%
    02:00 +1°C° 0 mm 1 mps 724 mmHg 92%
    03:00 +1°C° 0 mm 1 mps 724 mmHg 93%
    04:00 0°C° 0 mm 1 mps 724 mmHg 94%
    05:00 0°C° 0 mm 1 mps 724 mmHg 94%
    06:00 +1°C° 0 mm 1 mps 724 mmHg 94%
    07:00 +1°C° 0 mm 1 mps 724 mmHg 94%
    08:00 0°C° 0 mm 0 mps 724 mmHg 93%
    09:00 +1°C° 0 mm 0 mps 724 mmHg 93%
    10:00 +1°C° 0 mm 0 mps 724 mmHg 92%
    11:00 +2°C° 0 mm 0 mps 723 mmHg 90%
    12:00 +3°C° 0 mm 1 mps 723 mmHg 89%
    13:00 +4°C° 0 mm 1 mps 722 mmHg 87%
    14:00 +3°C° 0 mm 1 mps 722 mmHg 88%
    15:00 +3°C° 0 mm 1 mps 721 mmHg 89%
    16:00 +3°C° 0 mm 1 mps 721 mmHg 90%
    17:00 +3°C° 0 mm 1 mps 721 mmHg 92%
    18:00 +2°C° 0 mm 1 mps 721 mmHg 93%
    19:00 +2°C° 0 mm 1 mps 721 mmHg 95%
    20:00 +2°C° 0 mm 1 mps 720 mmHg 95%
    21:00 +1°C° 0 mm 1 mps 720 mmHg 95%
    22:00 +1°C° 0 mm 1 mps 720 mmHg 95%
    23:00 +1°C° 0 mm 1 mps 719 mmHg 95%

    12 December, Thursday

    Time Temperature Precipitation Wind Pressure Humidity
    00:00 0°C° 0 mm 0 mps 719 mmHg 94%
    01:00 0°C° 0 mm 0 mps 718 mmHg 94%
    02:00 0°C° 0 mm 0 mps 718 mmHg 94%
    03:00 0°C° 0 mm 0 mps 717 mmHg 94%
    04:00 -1°C° 0 mm 0 mps 717 mmHg 94%
    05:00 -1°C° 0 mm 0 mps 717 mmHg 93%
    06:00 -1°C° 0 mm 0 mps 717 mmHg 92%
    07:00 -1°C° 0 mm 0 mps 717 mmHg 92%
    08:00 +1°C° 0 mm 0 mps 717 mmHg 88%
    09:00 +2°C° 0 mm 0 mps 717 mmHg 85%
    10:00 +3°C° 0 mm 0 mps 717 mmHg 82%
    11:00 +3°C° 0 mm 0 mps 717 mmHg 81%
    12:00 +4°C° 0 mm 0 mps 717 mmHg 81%
    13:00 +5°C° 0 mm 1 mps 717 mmHg 80%
    14:00 +5°C° 0 mm 1 mps 717 mmHg 83%
    15:00 +4°C° 0 mm 1 mps 717 mmHg 86%
    16:00 +3°C° 0 mm 1 mps 717 mmHg 89%
    17:00 +3°C° 0.1 mm 1 mps 717 mmHg 91%
    18:00 +3°C° 0.1 mm 1 mps 717 mmHg 94%
    19:00 +2°C° 0.1 mm 1 mps 717 mmHg 97%
    20:00 +2°C° 0.4 mm 1 mps 718 mmHg 97%
    21:00 +2°C° 0.4 mm 1 mps 718 mmHg 97%
    22:00 +2°C° 0.4 mm 1 mps 718 mmHg 97%
    23:00 +2°C° 0.4 mm 1 mps 718 mmHg 97%

    13 December, Friday

    Time Temperature Precipitation Wind Pressure Humidity
    00:00 +2°C° 0.4 mm 1 mps 718 mmHg 97%
    01:00 +2°C° 0.4 mm 1 mps 718 mmHg 97%
    02:00 +2°C° 0.8 mm 1 mps 717 mmHg 97%
    03:00 +2°C° 0.8 mm 1 mps 717 mmHg 98%
    04:00 +1°C° 0.8 mm 1 mps 717 mmHg 98%
    05:00 +1°C° 0.6 mm 1 mps 717 mmHg 98%
    06:00 0°C° 0.6 mm 0 mps 717 mmHg 98%
    07:00 0°C° 0.6 mm 0 mps 717 mmHg 98%
    08:00 +1°C° 0 mm 0 mps 717 mmHg 96%
    09:00 +1°C° 0 mm 0 mps 717 mmHg 94%
    10:00 +3°C° 0 mm 1 mps 717 mmHg 92%
    11:00 +3°C° 0 mm 1 mps 716 mmHg 91%
    12:00 +4°C° 0 mm 1 mps 716 mmHg 89%
    13:00 +4°C° 0 mm 1 mps 715 mmHg 88%
    14:00 +3°C° 0 mm 1 mps 715 mmHg 89%
    15:00 +3°C° 0 mm 1 mps 714 mmHg 90%
    16:00 +1°C° 0 mm 2 mps 714 mmHg 91%
    17:00 +1°C° 0 mm 2 mps 714 mmHg 91%
    18:00 +1°C° 0 mm 2 mps 714 mmHg 90%
    19:00 +1°C° 0 mm 2 mps 714 mmHg 89%
    20:00 +1°C° 0 mm 2 mps 714 mmHg 88%
    21:00 +1°C° 0 mm 2 mps 714 mmHg 87%
    22:00 -1°C° 0 mm 2 mps 714 mmHg 86%
    23:00 -1°C° 0 mm 2 mps 714 mmHg 86%
    Show more